Regional Weather Roundup
Issued by NWS

Home | Current Version | Previous Version | Graphics & Text | Print | Product List | Glossary On
Versions: 1 2 3 4 5 6 7 8 9 10 11 12 13 14 15 16 17 18 19 20 21 22 23 24 25 26 27 28 29 30 31 32 33 34 35 36 37 38 39 40 41 42 43 44 45 46 47 48 49 50
000
ASUS43 KMPX 270901
RWRMN
WEATHER ROUNDUP FOR MINNESOTA
NATIONAL WEATHER SERVICE TWIN CITIES/CHANHASSEN MN
400 AM CDT FRI MAY 27 2016


NOTE: "FAIR" INDICATES FEW OR NO CLOUDS BELOW 12,000 FEET WITH NO
SIGNIFICANT WEATHER AND/OR OBSTRUCTIONS TO VISIBILITY. N/A MEANS
CURRENT SKY AND/OR WEATHER CONDITIONS ARE NOT AVAILABLE.

MNZ060>063-068>070-271000-
   Twin Cities Metro

CITY           SKY/WX    TMP DP  RH WIND       PRES   REMARKS
TWIN CITIES    CLOUDY    69  56  62 SE8       29.81F
ST PAUL        CLOUDY    64  59  83 S3        29.81F
CRYSTAL        CLOUDY    66  56  70 NE3       29.78F
BLAINE         MOCLDY    66  57  72 CALM      29.81F
EDEN PRAIRIE   CLOUDY    67  57  70 SE5       29.79F
SOUTH ST PAUL  CLOUDY    67  57  70 CALM      29.82S
LAKE ELMO      CLOUDY    63  59  88 E3        29.84S
$$
MNZ001>005-007-008-013>017-022>024-027-028-271000-
   Northwest Minnesota

CITY           SKY/WX    TMP DP  RH WIND       PRES   REMARKS
BEMIDJI        CLOUDY    55  52  90 CALM      29.83S
HALLOCK        CLOUDY    50  48  93 S5        29.80R FOG
ROSEAU         CLOUDY    54  48  82 SW3       29.81R
WARROAD        MOCLDY    54  48  82 SW3       29.81S
THIEF RVR FALL CLOUDY    55  52  88 CALM      29.81F
CROOKSTON      CLOUDY    57  55  94 N6        29.78F
FOSSTON        CLOUDY    54  52  94 SE3       29.82S
DETROIT LAKES  CLEAR     59  54  82 NE7       29.81F
MOORHEAD       CLEAR     55  54  94 E7        29.77F
PARK RAPIDS    CLEAR     53  49  86 NW3       29.81S
MAHNOMEN       CLOUDY    55  54  95 E3        29.82F
$$
MNZ006-009>011-018-025>026-271000-
   North Central Minnesota

CITY           SKY/WX    TMP DP  RH WIND       PRES   REMARKS
BAUDETTE       MOCLDY    50  49  96 SW6       29.82R
FLAG ISLAND    CLOUDY    54  54 100 SW10      29.79R FOG
INTL FALLS     CLEAR     48  46  93 CALM      29.81S
WASKISH        CLOUDY    59  55  88 W13G22    29.83R
BIG FORK       PTCLDY    46  45  93 CALM      29.81F
LONGVILLE      CLEAR     48  48 100 CALM      29.81F
GRAND RAPIDS   CLEAR     50  48  93 CALM      29.83F
CRANE LAKE     CLEAR     45  45 100 CALM      29.84F
ORR            PTCLDY    48  45  87 CALM      29.81F
COOK           CLEAR     46  45  93 CALM      29.84S
WALKER         PTSUNNY   54  52  92 CALM      29.81S
$$
MNZ012-019>021-037-271000-
   Northeast Minnesota

CITY           SKY/WX    TMP DP  RH WIND       PRES   REMARKS
DULUTH         CLOUDY    50  47  89 CALM      29.83F
ELY            CLOUDY    48  46  93 CALM      29.85F
HIBBING        CLEAR     43  43 100 CALM      29.83F
EVELETH        CLOUDY    45  45 100 CALM      29.85F FOG
DULUTH HARBOR  FOG       46  46 100 CALM      29.85S VSB 1/2
TWO HARBORS    CLOUDY    48  43  81 N5        29.81F
SILVER BAY     CLOUDY    45  45 100 CALM      29.84S FOG
GRAND MARAIS     N/A     45  43  93 CALM      29.85F
G MARAIS ARPRT FOG       46  45  93 CALM      29.87F VSB 1/2
$$
MNZ029>031-032-039>041-046>048-054>057-064-271000-
   West Central Minnesota

CITY           SKY/WX    TMP DP  RH WIND       PRES   REMARKS
FERGUS FALLS   CLEAR     59  52  77 NE6       29.75F
WHEATON        CLEAR     55  52  88 SE3       29.78F
MORRIS         PTCLDY    55  50  82 N3        29.78R
ALEXANDRIA     PTCLDY    57  49  74 CALM      29.80F
ELBOW LAKE     FAIR      60  51  72 NE5       29.78F
WADENA         CLEAR     52  48  87 CALM      29.79F
GLENWOOD       CLOUDY    57  52  82 CALM      29.80S
APPLETON       PTCLDY    57  50  77 CALM      29.77S
ORTONVILLE     CLEAR     59  54  82 NE5       29.78R
MADISON        PTCLDY    59  52  77 CALM      29.78R
WILLMAR        CLOUDY    63  57  82 CALM      29.79S
$$
MNZ033>034-036-042>043-049>051-058-059-271000-
   Central Minnesota

CITY           SKY/WX    TMP DP  RH WIND       PRES   REMARKS
ST CLOUD       CLOUDY    64  54  69 SE7       29.79F
SAUK CENTRE    FAIR      55  51  88 CALM      29.80S
PAYNESVILLE    MOCLDY    60  57  91 CALM      29.79F
AITKIN         PTCLDY    52  46  82 CALM      29.80F
PINE RIVER     CLEAR     50  50 100 CALM      29.84F
BRAINERD       CLEAR     52  50  93 CALM      29.81F
STAPLES        CLEAR     52  50  93 CALM      29.79F
LITTLE FALLS   CLEAR     54  50  87 CALM      29.80S
LITCHFIELD     CLOUDY    63  59  88 E3        29.78F
BUFFALO        CLOUDY    65  56  70 NE5       29.80F
MAPLE LAKE     CLOUDY    65  58  77 CALM      29.82S
HUTCHINSON     CLOUDY    64  58  83 E5        29.79F
$$
MNZ037-044-045-052-053-271000-
   East Central Minnesota

CITY           SKY/WX    TMP DP  RH WIND       PRES   REMARKS
PRINCETON      CLOUDY    63  55  77 E3        29.82S
MORA           CLOUDY    54  52  94 CALM      29.83F
CAMBRIDGE      CLOUDY    64  54  68 CALM      29.80F
RUSH CITY      CLOUDY    58  54  88 S6        29.83F
MOOSE LAKE     CLOUDY    50  46  87 CALM      29.82S
HINCKLEY       FAIR      52  52 100 CALM      29.82F
CLOQUET        CLOUDY    45  43  93 CALM      29.84S
MCGREGOR       CLOUDY    50  46  87 CALM      29.83F
$$
MNZ071>073-080-081-089-090-097-098-271000-
   Southwest Minnesota

CITY           SKY/WX    TMP DP  RH WIND       PRES   REMARKS
MONTEVIDEO     PTCLDY    59  50  72 NW6       29.79S
GRANITE FALLS  MOCLDY    61  54  78 CALM      29.79R
CANBY          PTCLDY    60  55  82 SW6       29.80R
MARSHALL       CLEAR     64  56  75 SW12      29.78S
REDWOOD FALLS  CLOUDY    62  56  80 S5        29.78R
OLIVIA         CLOUDY    59  54  82 SE5       29.77S
PIPESTONE      PTCLDY    61  55  82 CALM      29.79F
WINDOM         CLOUDY    63  57  82 CALM      29.81R
WORTHINGTON    CLOUDY    60  57  89 S6        29.82S
JACKSON        CLOUDY    61  54  77 S5        29.82S
TRACY          PTCLDY    64  58  82 SW10      29.79R
SLAYTON        PTCLDY    58  57  94 S5        29.81F
$$
MNZ065>067-074>077-082>085-091>093-271000-
   South Central Minnesota

CITY           SKY/WX    TMP DP  RH WIND       PRES   REMARKS
MANKATO        CLOUDY    64  55  72 SE8       29.81R
NEW ULM        CLOUDY    63  57  82 S7        29.80R
ST JAMES       MOCLDY    57  52  82 S6        29.81S
FAIRMONT       CLOUDY    63  55  77 S6        29.81F
GLENCOE        MOCLDY    64  61  88 SE6       29.79S
FARIBAULT      CLOUDY    68  54  60 S9G16     29.82F
OWATONNA       CLOUDY    68  54  60 S8        29.82F
WASECA         CLOUDY    63  54  72 SE9       29.82F
ALBERT LEA     CLOUDY    64  55  72 SE7       29.83F
$$
MNZ078>079-086>088-094>096-271000-
   Southeast Minnesota

CITY           SKY/WX    TMP DP  RH WIND       PRES   REMARKS
ROCHESTER      LGT RAIN  63  60  90 N3        29.85F
STANTON        CLOUDY    70  53  56 SE8       29.81S
DODGE CENTER   CLOUDY    63  57  82 SE5       29.84F
WINONA         MOCLDY    63  61  94 CALM      29.83F
AUSTIN         LGT RAIN  63  57  82 CALM      29.85S
PRESTON        CLOUDY    62  57  86 NE5       29.84F
$$
ABBREVIATIONS USED IN REMARKS
   TC - TEMPERATURES IN CELSIUS
  WCI - WIND CHILL INDEX
   HX - HEAT INDEX
  VSB - VISIBILITY
$$




USA.gov is the U.S. government's official web portal to all federal, state and local government web resources and services.